DMSP 5D-3 F18 (USA 210)

Last updated on Wed Nov 05 2025 00:02:22 GMT+0000 (Coordinated Universal Time)

1 35951U 09057A 25308.60619043 .00000265 00000+0 16080-3 0 9991 2 35951 98.8789 285.2063 0011154 163.8130 196.3401 14.14736621827831
UTC large
Height (km)
Speed (km/s)
/
Latitude / Longitude
Inclination (degrees)
Orbital Period (minutes)
Azimuth
Elevation
Range (km)
Doppler Factor

Next 0 passes for location: London (51.5072 / 0.1276)

Sorry there are no passes over London.